sat.trackr.live / text

‹ back to catalog

STARLINK-6367

NORAD 57376 · 2023-099BA

PAYLOAD ACTIVE UNKNOWN

§ Identity

Operator
Country
US
Launch date
2023-07-16
Launch site
AFETR
Launch vehicle
Mass (kg)
RCS (m²)

Purposes: comms

External: N2YO · Heavens-Above · Gunter

§ Orbital elements

Epoch: 2026-05-25T01:58:11.985888Z

Period
94.26 min
Inclination
43.0002°
Eccentricity
0.0001489
Mean motion
15.27636165 rev/d
Perigee alt
481.9 km
Apogee alt
483.9 km
Semi-major
6,861.0 km
B*
1.2725e-3
RAAN
166.7428°
Arg perigee
191.0829°
Mean anomaly
168.9990°
Rev number
15,792

§ Raw data

STARLINK-63671 57376U 23099BA  26145.08208317  .00034981  00000+0  12725-2 0  99912 57376  43.0002 166.7428 0001489 191.0829 168.9990 15.27636165157923

JSON: /api/v1/satellites/57376 · /tle

For live sub-satellite position, see the globe view (requires WebGL).

§ Visibility from observer

Set your observer location to see the next 7 days of passes ≥ 10°. The values pass through the URL so the page stays shareable.

No JS? Fill the form by hand. The geolocation button needs JavaScript.